Location: Limerick
(52.6650°N, 8.6230°W)
Time: 21:02:39
(UTC+00:00)

ISS - Pass Details

Date: 11 November 2019
Orbit: 412 x 421 km, 51.6° (Epoch: 15 November)

Event Time Altitude Azimuth Distance (km) Brightness Sun altitude
Exits shadow 04:47:30 11° 137° (SE) 1,430 -0.7 -27.4°
Drops below altitude 10° 04:47:41 10° 136° (SE) 1,502 -0.5 -27.4°
Sets 04:49:52 0° 128° (SE) 2,363 0.7 -27.1°
